PDT,Max TemperatureF,Mean TemperatureF,Min TemperatureF,Max Dew PointF,MeanDew PointF,Min DewpointF,Max Humidity, Mean Humidity, Min Humidity, Max Sea Level PressureIn, Mean Sea Level PressureIn, Min Sea Level PressureIn, Max VisibilityMiles, Mean VisibilityMiles, Min VisibilityMiles, Max Wind SpeedMPH, Mean Wind SpeedMPH, Max Gust SpeedMPH,PrecipitationIn, CloudCover, Events, WindDirDegrees
2013-6-1,91,71,50,55,51,47,89,59,29,29.91,29.83,29.73,10,10,6,14,7,16,0.00,0,,184
2013-6-2,79,66,53,53,51,48,89,65,40,29.75,29.71,29.64,10,10,8,22,9,26,0.00,0,,202
2013-6-3,75,64,52,54,52,49,93,70,46,29.84,29.77,29.71,10,10,7,25,12,31,0.00,3,,220
2013-6-4,74,64,54,53,50,49,89,68,46,29.96,29.89,29.84,10,10,10,23,15,28,0.00,3,,267
2013-6-5,71,62,52,54,51,48,89,73,57,30.01,29.94,29.88,10,10,10,20,14,23,0.00,4,,244
2013-6-6,74,63,51,55,51,49,96,75,53,29.95,29.89,29.81,10,10,10,18,10,23,0.00,3,,226
2013-6-7,88,71,53,61,54,50,93,67,40,29.89,29.80,29.69,10,10,9,12,6,14,0.00,3,,239
2013-6-8,81,68,55,58,55,52,86,67,48,29.79,29.72,29.68,10,10,9,25,9,31,0.00,0,,199
2013-6-9,74,66,58,55,53,52,86,72,58,29.86,29.83,29.79,10,10,10,25,14,30,0.00,6,,261
2013-6-10,70,62,54,54,52,50,86,71,55,29.96,29.89,29.82,10,10,10,22,12,25,0.00,7,Thunderstorm,251
2013-6-11,76,64,51,56,52,47,96,69,41,29.98,29.92,29.85,10,10,10,20,8,22,0.00,2,,239
2013-6-12,82,63,44,51,47,44,93,61,28,29.95,29.91,29.88,10,10,9,21,9,26,0.00,0,,229
2013-6-13,85,65,45,54,46,40,86,55,24,30.06,30.00,29.96,10,10,10,24,8,28,0.00,0,,208
2013-6-14,87,69,50,52,48,39,83,51,19,29.96,29.87,29.80,10,10,10,20,9,23,0.00,0,,185
2013-6-15,70,62,53,52,51,48,89,71,53,29.96,29.88,29.82,10,10,7,23,13,28,0.00,2,,203
2013-6-16,85,65,44,54,48,42,92,62,31,30.04,30.00,29.96,10,10,10,30,10,36,0.00,0,,235
2013-6-17,79,62,45,53,50,44,93,64,35,30.05,30.02,29.98,10,10,10,26,12,33,0.00,0,,251
2013-6-18,75,64,52,52,49,46,93,66,38,30.01,29.97,29.92,10,10,10,32,15,39,0.00,1,,259
2013-6-19,79,63,47,49,45,40,83,57,31,30.03,29.99,29.96,10,10,10,21,9,26,0.00,0,,252
2013-6-20,82,64,45,49,46,41,89,59,28,29.97,29.94,29.89,10,10,10,20,7,24,T,0,,238
2013-6-21,82,64,45,54,49,44,93,64,35,29.96,29.92,29.88,10,10,9,21,8,24,0.00,0,,193
2013-6-22,86,67,47,54,51,47,93,62,31,29.91,29.86,29.79,10,10,8,20,9,23,0.00,0,,214
2013-6-23,70,63,56,59,56,53,93,80,66,29.86,29.82,29.79,10,10,10,23,13,30,T,5,,238
2013-6-24,66,62,58,59,56,53,93,83,72,29.90,29.85,29.77,10,9,2,33,7,177,0.05,8,Rain,227
2013-6-25,67,64,60,63,61,57,100,94,87,29.98,29.93,29.86,10,8,2,17,8,21,0.14,8,Rain,217
2013-6-26,84,73,61,63,61,59,93,69,44,30.05,29.99,29.95,10,10,3,16,9,36,0.00,5,,226
2013-6-27,94,76,57,61,58,55,100,65,30,30.08,30.02,29.97,10,10,10,15,6,20,0.00,1,,235
2013-6-28,94,77,60,64,61,58,90,64,38,30.00,29.93,29.85,10,10,10,18,7,22,0.00,0,,194
2013-6-29,99,77,55,61,58,55,93,60,27,29.89,29.83,29.75,10,10,10,16,6,21,0.00,0,,191
2013-6-30,89,76,62,61,59,57,90,66,42,29.82,29.78,29.73,10,10,10,16,9,20,0.00,0,,205